Terminal Aerodrome Forecast
Issued by NWS Newport/Morehead City, NC

Home | Current Version | Previous Version | Text Only | Print | Product List | Glossary On
Versions: 1 2 3 4 5 6 7 8 9 10 11 12 13 14 15 16 17 18 19 20 21 22 23 24 25
000
FTUS42 KMHX 291400 AAB
TAFEWN
TAF AMD
KEWN 291441Z 2915/3012 04007KT P6SM VCSH BKN008 OVC015
      TEMPO 2915/2918 3SM -RA BR OVC010
     FM300500 01006KT 5SM BR OVC004=

USA.gov is the U.S. government's official web portal to all federal, state and local government web resources and services.